DLH51A EDDF-LOWS

Flight info

Callsign DLH51A
Flight time N/A
Altitude 31000
Route CINDY2D/07C CINDY Z74 HAREM DCT ASLEP DCT TAKUT DCT DINKU L603 OLETU T702 BADIT BADIT2R
Aircraft A319/M-SDE3FGHIRWY/LB1

Departure

Time N/A
Airport Frankfurt Main Airport (EDDF)

Arrival

Time 2026-04-28 20:27
Airport Salzburg Airport (LOWS)
Time Latitude Longitude Altitude Speed Heading
2026-04-28 19:57 49.52621 9.82610 28876 ft 479 kts 121°
2026-04-28 19:58 49.50835 9.86998 29241 ft 479 kts 130°
2026-04-28 19:58 49.48758 9.90998 29578 ft 482 kts 134°
2026-04-28 19:58 49.46633 9.95016 29900 ft 487 kts 134°
2026-04-28 19:58 49.44482 9.99087 30245 ft 491 kts 134°
2026-04-28 19:59 49.42329 10.03163 30545 ft 494 kts 134°
2026-04-28 19:59 49.40149 10.07278 30868 ft 497 kts 134°
2026-04-28 19:59 49.37964 10.11391 31116 ft 497 kts 134°
2026-04-28 20:00 49.33605 10.19599 31169 ft 496 kts 134°
2026-04-28 20:00 49.29503 10.27302 31190 ft 497 kts 134°
2026-04-28 20:01 49.25246 10.35247 31181 ft 495 kts 134°
2026-04-28 20:01 49.20572 10.42834 31196 ft 489 kts 141°
2026-04-28 20:02 49.15684 10.50081 31203 ft 489 kts 141°
2026-04-28 20:02 49.10810 10.57317 31195 ft 489 kts 141°
2026-04-28 20:03 49.05898 10.64593 31196 ft 489 kts 141°
2026-04-28 20:03 49.01043 10.71747 31173 ft 489 kts 141°
2026-04-28 20:03 48.98575 10.75377 30658 ft 486 kts 141°
2026-04-28 20:04 48.96158 10.78933 30168 ft 479 kts 141°
2026-04-28 20:04 48.93782 10.82426 29594 ft 472 kts 141°
2026-04-28 20:04 48.91436 10.85863 29006 ft 467 kts 141°
2026-04-28 20:04 48.89105 10.89266 28426 ft 462 kts 140°
2026-04-28 20:05 48.86805 10.92624 27856 ft 456 kts 140°
2026-04-28 20:05 48.84523 10.95954 27307 ft 452 kts 140°
2026-04-28 20:05 48.82266 10.99242 26944 ft 450 kts 140°
2026-04-28 20:05 48.80006 11.02523 26580 ft 449 kts 140°
2026-04-28 20:06 48.77761 11.05789 26223 ft 446 kts 140°
2026-04-28 20:06 48.75528 11.09039 25857 ft 443 kts 140°
2026-04-28 20:06 48.73309 11.12265 25508 ft 440 kts 140°
2026-04-28 20:06 48.71112 11.15445 25168 ft 436 kts 140°
2026-04-28 20:07 48.68922 11.18601 24832 ft 432 kts 140°
2026-04-28 20:07 48.67487 11.20664 24608 ft 430 kts 140°
2026-04-28 20:07 48.64624 11.24861 24166 ft 427 kts 136°
2026-04-28 20:07 48.62766 11.28362 23820 ft 427 kts 130°
2026-04-28 20:08 48.60995 11.31943 23426 ft 423 kts 130°
2026-04-28 20:08 48.59239 11.35487 23025 ft 421 kts 129°
2026-04-28 20:08 48.57479 11.39020 22620 ft 419 kts 129°
2026-04-28 20:08 48.55738 11.42508 22221 ft 416 kts 129°
2026-04-28 20:09 48.54002 11.45985 21821 ft 412 kts 129°
2026-04-28 20:09 48.52283 11.49422 21427 ft 409 kts 129°
2026-04-28 20:09 48.50577 11.52828 21045 ft 405 kts 129°
2026-04-28 20:09 48.48888 11.56194 20643 ft 400 kts 128°
2026-04-28 20:10 48.47251 11.59633 20259 ft 397 kts 122°
2026-04-28 20:10 48.46026 11.63340 19869 ft 395 kts 111°
2026-04-28 20:10 48.45095 11.67214 19443 ft 392 kts 109°
2026-04-28 20:10 48.44192 11.71010 19049 ft 388 kts 109°
2026-04-28 20:11 48.43269 11.74859 18640 ft 385 kts 109°
2026-04-28 20:11 48.42357 11.78637 18215 ft 382 kts 109°
2026-04-28 20:11 48.41451 11.82372 17812 ft 379 kts 109°
2026-04-28 20:11 48.40546 11.86086 17425 ft 376 kts 109°
2026-04-28 20:12 48.39837 11.88999 17115 ft 374 kts 109°
2026-04-28 20:12 48.39113 11.91974 16803 ft 371 kts 109°
2026-04-28 20:12 48.38528 11.94383 16540 ft 368 kts 109°
2026-04-28 20:13 48.37359 11.99186 15949 ft 364 kts 109°
2026-04-28 20:13 48.36489 12.02743 15516 ft 360 kts 109°
2026-04-28 20:13 48.35628 12.06267 15093 ft 357 kts 109°
2026-04-28 20:13 48.34774 12.09753 14672 ft 354 kts 109°
2026-04-28 20:14 48.33931 12.13193 14258 ft 351 kts 109°
2026-04-28 20:14 48.33091 12.16620 13838 ft 348 kts 109°
2026-04-28 20:14 48.32253 12.20026 13372 ft 345 kts 109°
2026-04-28 20:14 48.31423 12.23400 12879 ft 342 kts 109°
2026-04-28 20:15 48.30600 12.26734 12421 ft 340 kts 110°
2026-04-28 20:15 48.29779 12.30051 11952 ft 337 kts 110°
2026-04-28 20:15 48.28965 12.33337 11495 ft 334 kts 109°
2026-04-28 20:15 48.28157 12.36601 11020 ft 332 kts 109°
2026-04-28 20:16 48.27358 12.39825 10729 ft 325 kts 109°
2026-04-28 20:16 48.26586 12.42930 10607 ft 312 kts 110°
2026-04-28 20:16 48.25838 12.45926 10481 ft 300 kts 110°
2026-04-28 20:16 48.25114 12.48824 10226 ft 294 kts 109°
2026-04-28 20:17 48.24399 12.51680 9877 ft 292 kts 109°
2026-04-28 20:17 48.23918 12.53598 9633 ft 290 kts 110°
2026-04-28 20:17 48.22987 12.57326 9157 ft 286 kts 109°
2026-04-28 20:17 48.22295 12.60102 8815 ft 282 kts 109°
2026-04-28 20:18 48.21831 12.61958 8573 ft 280 kts 110°
2026-04-28 20:18 48.20895 12.64492 8207 ft 279 kts 129°
2026-04-28 20:18 48.19422 12.66346 7839 ft 278 kts 144°
2026-04-28 20:18 48.17833 12.67969 7454 ft 276 kts 144°
2026-04-28 20:19 48.16254 12.69571 7080 ft 273 kts 144°
2026-04-28 20:19 48.14681 12.71163 6692 ft 271 kts 144°
2026-04-28 20:19 48.13127 12.72738 6305 ft 268 kts 143°
2026-04-28 20:19 48.11596 12.74291 5907 ft 265 kts 143°
2026-04-28 20:20 48.10074 12.75834 5530 ft 262 kts 143°
2026-04-28 20:20 48.08575 12.77356 5150 ft 259 kts 142°
2026-04-28 20:20 48.07095 12.78861 4741 ft 256 kts 142°
2026-04-28 20:20 48.05626 12.80352 4317 ft 253 kts 142°
2026-04-28 20:21 48.04196 12.81797 4138 ft 242 kts 142°
2026-04-28 20:21 48.02836 12.83164 4035 ft 229 kts 141°
2026-04-28 20:21 48.01550 12.84451 4033 ft 220 kts 141°
2026-04-28 20:21 48.00281 12.85730 4030 ft 219 kts 141°
2026-04-28 20:22 47.99020 12.87003 4031 ft 219 kts 141°
2026-04-28 20:22 47.97760 12.88278 4029 ft 219 kts 141°
2026-04-28 20:22 47.96493 12.89542 4033 ft 220 kts 144°
2026-04-28 20:22 47.95129 12.90448 4021 ft 208 kts 152°
2026-04-28 20:23 47.93832 12.91216 4023 ft 194 kts 151°
2026-04-28 20:23 47.92621 12.91967 4017 ft 182 kts 150°
2026-04-28 20:23 47.91453 12.92707 3819 ft 179 kts 151°
2026-04-28 20:23 47.90325 12.93424 3586 ft 172 kts 151°
2026-04-28 20:24 47.89261 12.94099 3372 ft 164 kts 150°
2026-04-28 20:24 47.88232 12.94751 3163 ft 151 kts 150°
2026-04-28 20:24 47.87313 12.95332 2950 ft 137 kts 150°
2026-04-28 20:24 47.86457 12.95877 2776 ft 131 kts 150°
2026-04-28 20:25 47.85625 12.96406 2600 ft 130 kts 151°
2026-04-28 20:25 47.84789 12.96938 2423 ft 131 kts 152°
2026-04-28 20:25 47.83948 12.97472 2235 ft 132 kts 154°
2026-04-28 20:25 47.83096 12.98014 2053 ft 134 kts 154°
2026-04-28 20:26 47.82232 12.98563 1874 ft 136 kts 155°
2026-04-28 20:26 47.81353 12.99114 1714 ft 137 kts 155°
2026-04-28 20:26 47.80471 12.99675 1523 ft 138 kts 156°
2026-04-28 20:26 47.79605 13.00227 1424 ft 124 kts 157°
2026-04-28 20:27 47.78944 13.00640 1421 ft 79 kts 156°
2026-04-28 20:27 47.78602 13.00853 1421 ft 41 kts 156°
2026-04-28 20:27 47.78443 13.00955 1424 ft 20 kts 157°
2026-04-28 20:27 47.78314 13.01036 1419 ft 16 kts 157°
2026-04-28 20:28 47.78236 13.01079 1420 ft 10 kts 175°
2026-04-28 20:28 47.78192 13.01012 1419 ft 10 kts 247°
2026-04-28 20:28 47.78186 13.00918 1425 ft 10 kts 285°
2026-04-28 20:28 47.78237 13.00830 1420 ft 13 kts 323°
2026-04-28 20:29 47.78327 13.00764 1420 ft 16 kts 337°
2026-04-28 20:29 47.78437 13.00694 1420 ft 19 kts 337°
2026-04-28 20:29 47.78560 13.00616 1420 ft 19 kts 337°
2026-04-28 20:29 47.78686 13.00536 1420 ft 20 kts 336°
2026-04-28 20:30 47.78816 13.00453 1421 ft 21 kts 337°
2026-04-28 20:30 47.78912 13.00392 1420 ft 8 kts 337°
2026-04-28 20:30 47.78952 13.00330 1421 ft 8 kts 280°
2026-04-28 20:30 47.78954 13.00251 1422 ft 8 kts 272°
2026-04-28 20:31 47.78963 13.00168 1422 ft 8 kts 298°
2026-04-28 20:31 47.79015 13.00119 1422 ft 9 kts 336°
2026-04-28 20:31 47.79061 13.00089 1422 ft 6 kts 336°
2026-04-28 20:31 47.79080 13.00035 1422 ft 7 kts 282°
2026-04-28 20:32 47.79088 12.99979 1422 ft 3 kts 282°
2026-04-28 20:32 47.79090 12.99960 1422 ft 0 kts 282°